Location: Ferchesar
(52.6477°N, 12.4298°E)
Time: 09:55:53
(UTC+01:00)

S-56A Canister/Altair - Pass Details

Date: 10 December 2021
Orbit: 633 x 2499 km, 38.9° (Epoch: 19 January)

Event Time Altitude Azimuth Distance (km) Brightness Sun altitude
Rises 20:17:53 0° 201° (SSW) 6,054 12.2 -38.3°
Reaches altitude 10° 20:23:39 10° 186° (S) 4,848 11.5 -39.2°
Enters shadow 20:26:18 14° 177° (S) 4,372 11.2 -39.5°
Maximum altitude 20:31:44 19° 149° (SSE) 3,726 - -40.3°
Drops below altitude 10° 20:38:28 10° 109° (ESE) 3,947 - -41.3°
Sets 20:42:26 0° 93° (E) 4,610 - -41.9°
